Find Starlink 6316

NORAD ID: 57335 Int'l Des: 2023-099 Owner: SPXS Country: US Constellation: starlink operational
LEOCIRCULAR

現在のビュー

3D地球を読み込み中...

About Starlink 6316

Starlink 6316 (NORAD 57335) is a starlink constellation satellite (v1.5) launched Jul 16, 2023 by SPXS of US. It operates in LEO, CIRCULAR orbit with a mass of 305.00 kg.

Starlink 6316について

説明を読み込み中...

次回通過

Passes for default location (London). Set your location on the main map for personalized predictions.

高度履歴

Loading altitude history...

軌道要素

1 57335U 23099H 26169.06349837 .00001988 00000-0 81748-4 0 9998
2 57335 43.0021 42.4540 0001260 270.8492 89.2216 15.27575892161462
Epoch: Jun 18, 2026 • Age: 12 hours

現在のステータス

高度 490.2 km
速度 7.62 km/s
衛星直下点 -29.56°S, 112.64°W
打ち上げ日 Jul 16, 2023
運用期間 2.9 years
タイプ internet

技術仕様

分類 Payload
質量 305.00 kg
乾燥質量 290.00 kg
総質量 305.00 kg
長さ 0.20 m
直径 2.80 m
スパン 9.00 m
形状 Box + pan
製造者 SPXS
バスタイプ Starlink
フェーズステータス In Orbit
所有者/国 SPXS/US

Most Searched